Regional Weather Roundup
Issued by NWS

Home | Current Version | Previous Version | Graphics & Text | Print | Product List | Glossary On
Versions: 1 2 3 4 5 6 7 8 9 10 11 12 13 14 15 16 17 18 19 20 21 22 23 24 25 26 27 28 29 30 31 32 33 34 35 36 37 38 39 40 41 42 43 44 45 46 47 48 49 50
000
ASUS45 KSLC 222210
RWRUT

UTAH REGIONAL WEATHER ROUNDUP
NATIONAL WEATHER SERVICE SALT LAKE CITY UT
300 PM MST SAT NOV 22 2014

UTZ001>011-023>025-222300-

NORTHERN UTAH

CITY           SKY/WX    TMP DP  RH WIND       PRES   REMARKS
BRIGHAM CITY   CLOUDY    37  33  85 N15       29.80R WCI  28
HILL AFB       CLOUDY    41  40  95 S20G33    29.73R
LOGAN          LGT RAIN  38  35  89 NW12      29.79R WCI  30
OGDEN          LGT RAIN  43  39  86 S14       29.73R
PROVO AIRPORT  CLOUDY    43  37  81 E3        29.80F
SALT LAKE CITY RAIN      44  39  82 S15G21    29.76R
VERNAL         CLOUDY    40  21  46 SE6       29.78F
WENDOVER       PTSUNNY   50  41  71 NE6       29.74S
HEBER CITY     MIX PCPN  37  34  87 S6        29.78F WCI  33

$$

UTZ012>022-026-027-222300-

SOUTHERN/CENTRAL UTAH

CITY           SKY/WX    TMP DP  RH WIND       PRES   REMARKS
BLANDING       MOSUNNY   45  22  39 S5        30.00F
BRYCE CANYON   PTSUNNY   48  25  40 SW15G21   29.95F
CEDAR CITY     MOSUNNY   52  23  32 SW15G23   29.90F
DELTA          PTSUNNY   57  26  29 SW28G35   29.77F
MILFORD        CLOUDY    55  24  30 S28G35    29.84F
MOAB/CYNLANDS  CLOUDY    48  18  30 NW7       29.84F
PRICE          LGT SNOW  34  28  79 N5        29.88S VSB 3/4 WCI  30
ST GEORGE      CLOUDY    57  25  28 CALM      29.95F
KANAB          SUNNY     57  23  26 SW15G23   29.98F

$$

REGIONAL REPORTS     COLORADO/ARIZONA

CITY           SKY/WX    TMP DP  RH WIND       PRES   REMARKS
CRAIG, CO      LGT RAIN  38  29  70 SW10      29.82R WCI  31
GRAND JUNCTION CLOUDY    41  22  46 VRB6      29.87F
RIFLE          LGT RAIN  44  23  43 W12       29.89R
MONTROSE       CLOUDY    52  20  28 NW6       29.87F
CORTEZ         SUNNY     51  21  30 S12       29.96F
PAGE, AZ       NOT AVBL
GRAND CANYON   SUNNY     55  15  20 W14G26    30.02F
KINGMAN        SUNNY     64  23  21 SW17      30.00S
FLAGSTAFF      MOSUNNY   50  14  23 W17G28    30.04F

$$

REGIONAL REPORTS    NEVADA/IDAHO/WYOMING

CITY           SKY/WX    TMP DP  RH WIND       PRES   REMARKS
LAS VEGAS, NV  MOSUNNY   71  26  18 S20G28    29.84F
ELY            LGT RAIN  45  40  82 SW23G31   29.87R
ELKO           LGT RAIN  42  36  79 NW20G32   29.83R
POCATELLO, ID  PTSUNNY   42  37  82 SW32G38   29.69R
BURLEY         LGT RAIN  41  33  73 SW20      29.75R
EVANSTON, WY   LGT SNOW  33  32  96 SW16G28   29.70F VSB 3/4 WCI  23
ROCK SPRINGS   MOSUNNY   38  34  85 SW9       29.66F WCI  31
KEMMERER       LGT SNOW  34  32  93 W41G54    29.67R WCI  18

$$



USA.gov is the U.S. government's official web portal to all federal, state and local government web resources and services.